Weather History for KPIT - August, 2014

Change the Weather History Date:

Monday, August 25, 2014

  Actual Average Record
Temperature  
Mean Temperature 70 °F 71 °F  
Max Temperature 80 °F 81 °F 94 °F (1993)
Min Temperature 60 °F 61 °F 45 °F (1977)
Degree Days  
Heating Degree Days 0 0  
Month to date heating degree days 10 0  
Since 1 June heating degree days 30 42  
Since 1 July heating degree days 21 4  
Cooling Degree Days 5 6  
Month to date cooling degree days 137 174  
Year to date cooling degree days 584 617  
Since 1 June cooling degree days 510 565  
Growing Degree Days 20 (Base 50)    
Moisture  
Dew Point 59 °F    
Average Humidity 71    
Maximum Humidity 90    
Minimum Humidity 52    
Precipitation  
Precipitation 0.00 in 0.11 in 2.59 in (1879)
Month to date precipitation 3.97 2.82  
Year to date precipitation 28.30 26.05  
Snow  
Snow 0.00 in 0.00 in 0.00 in (2002)
Month to date snowfall 0.0 0.0  
Since 1 July snowfall 0.0 0.0  
Snow Depth 0.00 in    
Sea Level Pressure  
Sea Level Pressure 30.16 in    
Wind  
Wind Speed 5 mph (SE)    
Max Wind Speed 12 mph    
Max Gust Speed 17 mph    
Visibility 10 miles    
Events      
T = Trace of Precipitation, MM = Missing Value Source: NWS Daily Summary

Daily Weather History Graph

Daily Weather History Graph

Search for Another Location

Airport or City:

Trip Planner

Search our weather history database for the weather conditions in past years. The results will help you decide how hot, cold, wet, or windy it might be!

Date:

Astronomy

Aug. 25, 2014 Rise Set
Actual Time 6:41 AM EDT 8:03 PM EDT
Civil Twilight 6:12 AM EDT 8:32 PM EDT
Nautical Twilight 5:38 AM EDT 9:06 PM EDT
Astronomical Twilight 5:02 AM EDT 9:42 PM EDT
Moon 6:45 AM EDT (8/25) 7:52 PM EDT (8/25)
Length of Visible Light 14h 19m
Length of Day
13h 22m
New Moon, 0% of the Moon is Illuminated
Aug 25
New Moon
Sep 2
First Quarter
Sep 8
Full
Sep 15
Last Quarter
Sep 24
New

Hourly Weather History & Observations

Time (EDT) Temp. Dew Point Humidity Pressure Visibility Wind Dir Wind Speed Gust Speed Precip Events Conditions
12:51 AM 66.0 °F 59.0 °F 78% 30.16 in 10.0 mi SE 4.6 mph - N/A   Scattered Clouds
1:51 AM 64.0 °F 59.0 °F 84% 30.15 in 10.0 mi ESE 5.8 mph - N/A   Scattered Clouds
2:51 AM 64.0 °F 57.9 °F 80% 30.14 in 10.0 mi ESE 4.6 mph - N/A   Scattered Clouds
3:51 AM 62.1 °F 57.9 °F 86% 30.14 in 10.0 mi East 3.5 mph - N/A   Scattered Clouds
4:51 AM 61.0 °F 57.9 °F 90% 30.13 in 10.0 mi East 4.6 mph - N/A   Scattered Clouds
5:51 AM 61.0 °F 57.9 °F 90% 30.14 in 10.0 mi East 5.8 mph - N/A   Mostly Cloudy
6:51 AM 61.0 °F 57.9 °F 90% 30.15 in 10.0 mi Calm Calm - N/A   Mostly Cloudy
7:51 AM 62.1 °F 59.0 °F 90% 30.17 in 10.0 mi East 3.5 mph - N/A   Mostly Cloudy
8:51 AM 64.9 °F 59.0 °F 81% 30.19 in 10.0 mi ESE 5.8 mph - N/A   Overcast
9:51 AM 69.1 °F 59.0 °F 70% 30.20 in 10.0 mi SSE 5.8 mph - N/A   Mostly Cloudy
10:51 AM 72.0 °F 57.9 °F 61% 30.20 in 10.0 mi SSE 10.4 mph - N/A   Mostly Cloudy
11:51 AM 75.0 °F 60.1 °F 60% 30.19 in 10.0 mi Variable 6.9 mph - N/A   Mostly Cloudy
12:51 PM 75.9 °F 59.0 °F 56% 30.18 in 10.0 mi SSE 10.4 mph - N/A   Mostly Cloudy
1:51 PM 77.0 °F 59.0 °F 54% 30.17 in 10.0 mi SSW 5.8 mph - N/A   Mostly Cloudy
2:51 PM 78.1 °F 59.0 °F 52% 30.16 in 10.0 mi Calm Calm - N/A   Mostly Cloudy
3:51 PM 79.0 °F 59.0 °F 50% 30.15 in 10.0 mi SSE 6.9 mph - N/A   Mostly Cloudy
4:51 PM 79.0 °F 59.0 °F 50% 30.14 in 10.0 mi South 5.8 mph - N/A   Mostly Cloudy
5:51 PM 79.0 °F 60.1 °F 52% 30.15 in 10.0 mi South 5.8 mph - N/A   Mostly Cloudy
6:51 PM 77.0 °F 59.0 °F 54% 30.14 in 10.0 mi South 4.6 mph - N/A   Scattered Clouds
7:51 PM 75.9 °F 59.0 °F 56% 30.14 in 10.0 mi SSE 4.6 mph - N/A   Partly Cloudy
8:51 PM 72.0 °F 61.0 °F 68% 30.14 in 10.0 mi SSE 5.8 mph - N/A   Partly Cloudy
9:51 PM 71.1 °F 57.9 °F 63% 30.14 in 10.0 mi Calm Calm - N/A   Partly Cloudy
10:51 PM 69.8 °F 59.0 °F 68% 30.13 in 10.0 mi SSE 3.5 mph - N/A   Clear
11:51 PM 66.0 °F 59.0 °F 78% 30.14 in 10.0 mi Calm Calm - N/A   Clear